Theta_e
332 331 332 331 332 331 331 330 329 329 328 328 329 329 329 329 329 328 326 327 328 326 324 323 324 325 327 330 330 330 329 329 329 327 326 326 324 324 323 323 323 323 323
331 331 330 332 332 332 331 329 330 328 327 328 328 328 328 330 330 326 328 327 328 326 326 327 325 325 328 326 328 330 329 328 328 325 324 323 323 323 323 323 324 324 323
330 331 331 331 333 331 331 329 328 328 328 328 328 328 329 330 330 329 329 329 328 328 324 325 327 327 328 329 328 328 327 328 326 325 323 323 324 324 324 324 323 323 322
330 330 331 331 333 330 329 329 327 327 327 328 328 328 329 329 328 328 330 330 330 329 326 327 328 328 328 328 328 328 327 326 324 324 323 324 324 324 325 324 322 321 317
329 330 331 332 332 330 329 329 327 327 327 328 329 329 329 329 329 331 330 330 330 330 329 328 327 328 328 329 329 327 327 325 326 325 325 324 324 324 324 322 320 319 315
329 330 332 331 330 330 329 329 328 328 328 328 329 329 330 328 323 324 329 331 330 330 329 330 328 329 329 328 328 328 327 325 325 325 325 324 324 324 322 320 318 314 311
329 331 331 330 330 330 330 330 330 329 329 329 329 329 330 324 323 324 327 331 330 329 330 329 328 328 329 328 328 328 327 326 325 325 325 324 323 322 322 319 313 311 313
329 331 330 330 330 330 330 330 331 330 329 331 330 329 329 323 323 326 327 332 330 330 328 328 328 328 328 328 328 328 327 326 326 325 325 322 323 323 323 316 313 323 322
330 330 330 330 331 331 330 331 332 330 330 330 331 330 330 323 326 326 330 331 332 330 329 329 330 327 327 328 328 327 327 326 325 326 325 324 324 323 322 318 324 325 324
329 330 330 331 331 331 332 333 333 332 331 331 330 331 330 324 327 328 329 330 331 329 329 330 328 327 327 326 326 326 326 326 325 325 323 324 325 323 320 322 325 325 324
328 331 330 331 331 332 331 331 331 332 331 330 330 330 329 327 327 328 329 330 328 328 329 328 327 327 326 326 325 325 325 324 322 323 323 325 325 325 322 323 326 326 327
327 330 331 331 331 332 332 330 329 331 332 330 330 331 330 327 327 329 328 329 330 328 328 328 326 327 328 328 327 328 328 326 327 328 327 326 326 319 321 328 328 329 329
326 329 331 332 332 332 332 329 328 330 331 331 332 331 331 329 326 326 328 328 330 329 328 326 325 325 325 326 326 323 324 326 325 324 324 324 323 323 325 326 324 325 325
326 328 330 332 331 332 330 329 326 327 329 330 331 331 332 330 328 326 327 328 329 330 328 324 324 324 326 323 322 323 327 327 327 327 327 327 327 329 328 325 323 323 323
326 327 328 329 330 331 329 329 328 326 325 326 328 329 330 331 330 326 327 329 330 330 328 324 324 328 328 324 324 324 325 327 328 328 325 325 326 327 325 324 321 319 318
326 326 327 326 329 330 329 330 328 328 324 324 325 327 329 330 330 327 326 328 329 327 328 328 328 327 327 327 326 325 325 324 325 325 325 324 323 322 323 322 321 320 319
326 326 326 325 326 328 330 329 330 328 327 322 323 324 325 325 325 325 326 327 328 327 329 329 328 328 328 327 326 326 324 324 324 325 326 325 322 322 321 321 320 320 321
326 325 325 323 324 324 327 330 330 330 328 326 321 319 322 323 321 317 320 321 324 326 327 328 328 326 326 326 326 325 324 323 323 324 325 324 323 322 322 321 320 319 320
326 325 325 325 323 323 323 324 328 328 329 328 326 322 320 320 318 318 317 317 321 320 320 322 323 323 323 322 322 322 322 322 322 322 323 324 324 323 323 321 320 319 320
326 326 325 325 324 323 323 324 324 324 324 324 324 324 320 323 321 317 317 318 322 322 320 319 321 322 322 321 321 320 319 318 318 320 322 323 323 323 323 322 320 320 319
327 327 325 324 324 323 322 323 323 323 324 324 324 324 325 318 323 322 319 318 320 321 322 322 322 322 322 323 323 323 322 321 320 319 319 321 322 322 322 321 321 320 319
329 329 327 325 324 324 323 322 323 323 323 323 324 324 325 325 323 323 324 323 321 321 320 322 322 322 321 321 320 321 322 322 321 321 320 320 320 321 321 321 321 320 318
330 330 330 327 325 326 325 324 323 323 323 323 323 324 324 325 324 322 322 323 324 323 321 321 322 323 322 321 320 319 318 318 319 320 320 321 320 320 320 320 320 320 317
330 330 331 330 327 326 327 325 325 324 324 324 323 323 324 324 324 323 323 323 324 325 325 323 322 322 322 322 321 320 319 318 317 317 318 318 319 320 319 320 320 319 315
331 330 330 331 329 327 327 327 327 326 325 325 325 324 324 324 325 325 323 322 323 325 326 327 326 324 322 322 322 321 320 319 319 318 318 316 316 317 318 319 318 317 313
330 330 331 331 330 329 327 328 328 328 328 327 326 326 325 325 325 325 326 325 323 324 325 326 326 326 325 323 322 322 321 321 321 321 320 321 320 319 319 318 316 314 311
Wind_Speed
12 10 10 7 6 3 4 5 6 8 7 5 3 2 2 1 2 1 5 6 6 8 10 6 6 3 6 5 9 14 14 22 30 28 30 33 36 43 42 43 39 34 30
12 10 8 7 6 5 6 8 5 8 6 4 3 0 0 2 1 1 2 6 7 7 7 6 6 5 7 8 11 18 20 19 28 39 37 35 46 40 39 32 34 29 27
12 9 8 6 6 5 7 8 8 8 6 4 3 2 1 3 3 2 0 6 8 8 8 3 8 10 13 16 17 15 17 25 38 44 44 43 33 33 34 27 29 25 23
12 9 8 5 6 7 8 7 9 8 7 5 4 3 5 3 1 4 5 4 5 6 7 6 13 12 15 16 19 20 26 35 41 43 42 37 35 31 31 26 27 25 26
12 9 7 6 7 7 9 9 9 8 7 7 7 7 5 4 5 6 4 4 5 8 9 10 16 12 16 20 22 30 35 46 41 41 36 38 31 29 30 30 27 25 22
13 11 9 8 9 9 9 10 9 10 9 8 8 7 6 5 6 4 8 5 7 10 13 15 15 13 17 20 25 27 36 45 42 41 40 39 32 31 30 28 28 25 20
14 12 10 10 11 11 10 10 8 9 9 8 9 9 7 7 3 3 8 6 6 12 15 18 17 18 18 20 23 28 34 33 34 36 38 33 36 29 28 27 25 21 20
15 14 12 13 12 12 10 9 8 9 10 10 9 8 6 7 3 3 8 6 9 13 16 19 20 19 20 22 23 26 27 29 32 30 34 40 26 20 23 22 24 14 14
16 15 14 14 12 11 10 9 6 4 6 5 9 10 8 8 4 7 11 7 14 16 18 19 19 20 20 22 25 25 25 27 27 28 20 26 20 19 21 23 17 19 17
17 17 16 14 12 11 9 7 6 5 4 4 8 10 10 9 7 10 15 9 19 17 17 19 17 23 26 23 25 25 26 30 32 30 25 22 18 18 20 17 14 17 20
18 18 16 16 14 12 10 9 8 6 6 6 8 8 10 9 8 14 15 17 19 19 19 23 24 25 25 25 23 26 30 35 29 28 26 19 18 21 22 21 17 16 16
20 19 18 17 15 11 10 9 8 8 8 7 10 9 9 9 13 15 14 20 19 20 21 20 25 24 24 24 22 21 21 22 19 18 18 18 18 20 18 13 14 10 16
22 21 20 18 15 13 11 10 8 8 7 9 9 10 11 9 11 11 15 22 21 21 19 21 20 20 19 17 19 20 23 20 19 19 19 18 17 17 18 19 22 19 13
23 23 21 20 17 15 13 11 9 9 8 10 12 9 9 11 11 13 22 24 21 19 18 18 20 21 17 20 21 22 16 16 17 18 19 17 17 20 19 16 18 19 19
24 23 22 21 20 17 15 12 11 10 10 9 9 9 10 11 11 16 21 18 15 17 19 20 18 15 13 17 19 15 14 15 16 17 15 16 15 14 14 15 14 14 11
26 25 24 22 22 19 18 16 16 13 16 13 13 12 11 10 12 15 17 17 18 20 17 15 14 13 14 15 15 15 13 16 15 14 15 15 15 16 16 16 15 15 14
28 25 23 23 21 22 21 19 18 18 15 19 19 15 14 15 12 14 18 19 18 17 15 13 13 14 15 15 16 17 17 16 17 16 16 16 16 17 19 16 16 16 17
29 26 24 24 22 22 21 21 19 19 19 19 18 22 18 15 16 17 19 19 20 21 17 15 15 16 16 17 18 19 19 20 20 19 19 18 18 18 18 19 19 20 20
29 26 26 22 23 21 21 21 20 20 19 19 19 24 23 22 20 20 20 21 19 19 20 18 17 18 18 19 20 20 21 22 23 22 22 21 21 21 21 21 21 23 24
30 28 27 24 23 23 23 22 21 21 21 21 23 23 31 27 27 28 29 28 22 21 22 23 22 21 21 22 22 22 23 25 25 24 25 25 26 25 24 24 23 23 25
28 28 32 27 24 25 25 25 23 23 23 22 22 23 25 33 28 26 29 30 28 25 25 24 24 24 24 23 23 23 25 25 26 27 29 29 28 27 28 27 26 25 27
29 28 32 30 27 26 26 26 26 25 25 24 23 23 28 25 25 26 26 27 28 29 28 28 27 26 26 26 27 27 26 26 27 29 30 29 26 29 29 28 26 27 28
32 31 30 34 31 28 28 26 26 26 26 25 24 24 29 29 26 27 29 28 28 28 28 30 30 29 27 28 29 29 30 30 31 31 29 28 29 31 30 29 26 26 27
33 33 33 31 34 33 31 32 29 28 26 26 26 27 28 29 28 29 28 28 29 29 28 28 29 29 28 29 29 31 31 32 31 30 29 31 30 28 28 27 24 25 28
32 33 34 34 33 36 34 32 30 29 28 28 27 28 27 27 27 28 30 32 30 30 29 29 28 28 29 31 31 30 30 30 30 29 26 28 30 27 25 25 24 26 34
32 31 33 34 34 33 36 33 34 32 30 30 31 29 30 30 31 31 31 33 35 35 34 32 33 30 28 29 32 34 32 32 33 33 31 24 23 25 24 27 26 29 38
Wind_Direction
163 170 177 179 180 189 179 150 166 158 164 160 160 53 57 40 54 170 213 207 223 220 226 215 229 218 170 131 150 170 173 165 149 149 152 154 150 145 141 147 151 154 152
167 173 180 183 183 193 160 153 170 148 167 168 163 134 334 20 226 309 261 195 200 205 206 206 210 202 166 146 138 144 147 166 166 150 155 150 142 146 146 147 155 149 155
167 173 180 187 189 176 156 161 155 162 164 167 170 147 232 92 40 25 100 191 187 190 203 162 199 167 140 134 146 145 159 166 163 152 142 147 155 152 152 148 151 148 140
168 172 171 197 171 150 157 152 163 161 167 167 157 190 108 101 47 88 52 77 153 170 172 126 139 136 143 141 145 138 152 153 144 141 148 160 159 150 154 142 137 141 143
167 163 171 156 134 148 147 152 160 164 161 163 160 134 125 137 103 88 70 85 125 125 145 142 149 141 145 147 153 148 152 147 143 151 151 158 151 148 143 146 136 140 148
164 159 146 147 146 148 148 154 161 167 165 163 151 146 128 161 118 80 101 70 121 123 123 133 134 134 142 145 149 156 158 156 154 156 157 156 144 149 148 141 144 147 146
162 157 150 149 147 145 145 153 158 161 157 162 166 164 172 174 164 82 119 81 120 132 135 141 135 134 138 145 152 154 163 167 163 156 159 160 147 148 147 153 157 160 162
163 158 155 152 149 149 151 156 161 182 168 166 165 178 174 176 177 99 122 93 112 134 135 134 127 134 142 147 148 154 160 166 168 161 152 150 150 153 149 158 149 150 165
166 161 158 156 154 155 160 164 165 169 134 137 165 164 161 163 154 126 117 117 121 118 131 135 122 127 129 138 141 149 161 159 159 158 158 168 168 161 150 157 163 158 158
169 166 162 160 158 155 157 159 164 150 127 130 118 146 155 158 140 126 118 139 130 126 129 130 131 131 128 134 138 136 140 147 156 155 156 156 163 163 151 165 170 169 171
170 168 166 165 160 155 150 150 152 156 147 141 124 127 128 138 134 134 128 135 129 117 117 134 131 128 130 134 135 131 131 147 146 156 166 172 171 173 171 176 185 192 186
173 173 170 166 167 166 157 148 151 155 155 143 142 123 124 137 126 138 147 135 125 131 128 131 129 132 137 141 142 142 140 145 150 162 171 173 175 175 177 185 194 185 199
175 177 176 176 176 175 174 163 161 149 155 141 148 144 139 139 135 143 143 144 137 137 149 138 132 138 147 151 150 148 138 143 152 159 168 174 177 172 187 200 201 204 214
179 179 181 182 180 183 183 180 173 167 161 161 159 150 146 145 155 149 149 153 152 146 151 143 140 139 138 146 146 148 146 161 164 169 170 173 175 190 200 206 211 213 225
184 183 184 186 185 187 186 190 186 182 177 168 167 164 163 160 168 160 154 162 154 164 163 157 154 151 151 159 159 160 166 173 184 177 177 182 187 187 188 196 200 203 205
187 189 189 189 192 192 191 195 200 193 195 186 171 174 182 183 189 171 162 160 161 176 163 164 173 177 178 179 181 183 183 184 186 189 192 194 191 190 196 199 200 202 198
191 192 193 191 196 195 197 198 199 203 203 200 192 189 178 193 204 192 182 178 179 180 178 191 194 197 198 200 201 202 204 205 198 204 205 206 204 205 208 208 207 208 209
195 197 195 195 199 199 201 200 201 201 202 203 200 201 198 197 203 196 193 193 197 199 201 205 208 209 209 210 212 213 215 216 218 214 217 217 216 215 216 216 217 217 216
196 197 198 202 202 203 203 204 204 203 204 205 204 203 203 208 205 202 203 204 203 208 210 211 216 217 218 218 218 219 220 221 223 224 222 224 224 222 224 227 226 226 222
198 196 199 201 204 205 205 206 206 206 205 205 205 209 209 206 209 209 210 208 211 217 219 221 219 220 222 222 223 223 225 225 225 224 225 226 226 225 228 231 232 232 227
203 202 201 198 206 207 207 207 207 207 207 206 207 210 214 213 210 213 218 219 219 219 223 226 227 227 226 226 227 226 227 226 227 228 228 230 227 229 232 231 233 232 228
207 207 207 205 206 207 209 209 210 211 210 210 211 212 219 221 213 218 221 226 225 226 225 228 230 231 232 231 230 229 229 229 228 230 231 232 232 234 233 234 231 232 220
210 211 211 210 209 210 209 209 212 214 215 215 214 214 217 219 219 218 221 224 229 230 232 230 232 234 233 234 234 234 233 232 233 233 232 233 232 232 233 233 232 231 221
213 214 213 214 213 211 211 211 212 216 216 218 218 218 222 220 222 224 224 227 227 230 234 232 236 235 237 236 234 233 233 234 234 233 233 233 236 239 237 236 233 228 220
217 218 218 213 214 217 217 215 215 217 218 220 222 222 224 226 226 226 227 224 227 230 230 233 233 235 235 234 236 235 236 239 236 232 233 237 237 238 238 234 230 221 218
221 222 223 217 214 216 219 217 215 216 218 220 221 223 226 228 229 232 230 229 229 230 233 233 236 234 233 236 236 236 234 239 239 241 236 230 235 232 229 223 216 214 225